| time (UTC) | temp F | wind direction | speed knots | gust knots | rain 1hr in | rain 24hr in | rain mn in | humidity % | barometer mb |
| 20260506094006 | 58 | 9 | 6.1 | 9.6 | 0.00 | 0.00 | 0.00 | 55 | 1013.1 |
| 20260506093006 | 56 | 6 | 7.0 | 9.6 | 0.00 | 0.00 | 0.00 | 58 | 1013.1 |
| 20260506092006 | 56 | 2 | 6.1 | 9.6 | 0.00 | 0.00 | 0.00 | 57 | 1013.1 |
| 20260506091006 | 55 | 3 | 7.0 | 9.6 | 0.00 | 0.00 | 0.00 | 61 | 1012.9 |
| 20260506090006 | 53 | 353 | 7.8 | 11.3 | 0.00 | 0.00 | 0.00 | 65 | 1012.9 |
| 20260506085006 | 53 | 352 | 6.1 | 9.6 | 0.00 | 0.00 | 0.00 | 67 | 1013.0 |
| 20260506084006 | 52 | 358 | 7.0 | 12.2 | 0.00 | 0.00 | 0.00 | 65 | 1013.0 |
| 20260506083005 | 51 | 357 | 8.7 | 16.5 | 0.00 | 0.00 | 0.00 | 64 | 1013.0 |
| 20260506082006 | 51 | 357 | 8.7 | 13.0 | 0.00 | 0.00 | 0.00 | 65 | 1013.0 |
| 20260506081006 | 51 | 351 | 8.7 | 12.2 | 0.00 | 0.00 | 0.00 | 66 | 1012.9 |
| 20260506073006 | 51 | 4 | 6.1 | 8.7 | 0.00 | 0.00 | 0.00 | 69 | 1012.7 |
| 20260506061006 | 52 | 24 | 3.5 | 5.2 | 0.00 | 0.00 | 0.00 | 75 | 1012.4 |
| 20260506051006 | 47 | 6 | 7.0 | 10.4 | 0.00 | 0.00 | 0.00 | 81 | 1012.3 |
| 20260506045006 | 47 | 9 | 2.6 | 4.3 | 0.00 | 0.00 | 0.00 | 79 | 1012.2 |
| 20260506044006 | 47 | 13 | 2.6 | 3.5 | 0.00 | 0.00 | 0.00 | 79 | 1012.1 |
| 20260506042006 | 48 | 10 | 2.6 | 5.2 | 0.00 | 0.00 | 0.00 | 79 | 1012.1 |
| 20260506041006 | 48 | 11 | 4.3 | 6.1 | 0.00 | 0.00 | 0.00 | 79 | 1012.0 |
| 20260506040005 | 48 | 14 | 3.5 | 6.1 | 0.00 | 0.00 | 0.00 | 79 | 1012.1 |
| 20260506035005 | 48 | 17 | 3.5 | 5.2 | 0.00 | 0.00 | 0.00 | 79 | 1012.0 |
| 20260506034005 | 49 | 13 | 3.5 | 5.2 | 0.00 | 0.00 | 0.00 | 79 | 1011.9 |
| 20260506033005 | 49 | 15 | 3.5 | 6.1 | 0.00 | 0.00 | 0.00 | 78 | 1012.0 |
| 20260506032005 | 49 | 23 | 4.3 | 6.1 | 0.00 | 0.00 | 0.00 | 78 | 1012.0 |
| 20260506031005 | 49 | 23 | 5.2 | 7.0 | 0.00 | 0.00 | 0.00 | 77 | 1012.0 |
| 20260506025005 | 49 | 26 | 5.2 | 10.4 | 0.00 | 0.00 | 0.00 | 76 | 1012.1 |
| 20260506024005 | 49 | 17 | 6.1 | 10.4 | 0.00 | 0.00 | 0.00 | 76 | 1011.9 |
| 20260506023005 | 50 | 13 | 4.3 | 6.1 | 0.00 | 0.00 | 0.00 | 76 | 1012.2 |
| 20260506022005 | 50 | 22 | 4.3 | 7.8 | 0.00 | 0.00 | 0.00 | 76 | 1012.1 |
| 20260506021005 | 50 | 24 | 4.3 | 5.2 | 0.00 | 0.00 | 0.00 | 76 | 1012.1 |
| 20260506020005 | 50 | 25 | 4.3 | 8.7 | 0.00 | 0.00 | 0.00 | 76 | 1012.3 |
| 20260506015005 | 51 | 26 | 4.3 | 7.0 | 0.00 | 0.00 | 0.00 | 76 | 1012.3 |
| 20260506014005 | 51 | 21 | 6.1 | 9.6 | 0.00 | 0.00 | 0.00 | 76 | 1012.3 |
| 20260506013005 | 51 | 9 | 7.0 | 10.4 | 0.00 | 0.00 | 0.00 | 77 | 1012.2 |
| 20260506012005 | 51 | 3 | 7.0 | 10.4 | 0.00 | 0.00 | 0.00 | 78 | 1012.1 |
| 20260506010005 | 51 | 4 | 7.0 | 9.6 | 0.00 | 0.00 | 0.00 | 78 | 1012.2 |
| 20260506005005 | 51 | 8 | 4.3 | 8.7 | 0.00 | 0.00 | 0.00 | 77 | 1012.1 |
| 20260506004005 | 51 | 11 | 5.2 | 7.8 | 0.00 | 0.00 | 0.00 | 76 | 1012.3 |
| 20260506003005 | 52 | 18 | 4.3 | 7.0 | 0.00 | 0.00 | 0.00 | 76 | 1012.3 |
| 20260506000005 | 52 | 19 | 5.2 | 9.6 | 0.00 | 0.00 | 0.00 | 75 | 1012.5 |
| 20260505235005 | 52 | 18 | 4.3 | 6.1 | 0.00 | 0.00 | 0.00 | 74 | 1012.4 |
| 20260505234005 | 52 | 20 | 4.3 | 7.0 | 0.00 | 0.00 | 0.00 | 74 | 1012.5 |
| 20260505232005 | 52 | 34 | 4.3 | 7.0 | 0.00 | 0.00 | 0.00 | 73 | 1012.4 |
| 20260505231005 | 52 | 40 | 4.3 | 7.8 | 0.00 | 0.00 | 0.00 | 73 | 1012.6 |
| 20260505230012 | 52 | 49 | 5.2 | 7.8 | 0.00 | 0.00 | 0.00 | 70 | 1012.6 |
| 20260505225005 | 53 | 47 | 5.2 | 9.6 | 0.00 | 0.00 | 0.00 | 68 | 1012.5 |
| 20260505224005 | 53 | 46 | 4.3 | 7.0 | 0.00 | 0.00 | 0.00 | 66 | 1012.5 |
| 20260505223006 | 53 | 49 | 7.0 | 12.2 | 0.00 | 0.00 | 0.00 | 66 | 1012.5 |
| 20260505222005 | 53 | 47 | 7.0 | 11.3 | 0.00 | 0.00 | 0.00 | 65 | 1012.5 |
| 20260505221004 | 54 | 61 | 4.3 | 5.2 | 0.00 | 0.00 | 0.00 | 60 | 1012.5 |
| 20260505214005 | 54 | 78 | 4.3 | 7.0 | 0.00 | 0.00 | 0.00 | 57 | 1012.6 |
| 20260505213005 | 54 | 78 | 6.1 | 9.6 | 0.00 | 0.00 | 0.00 | 57 | 1012.4 |
| 20260505212005 | 54 | 77 | 7.0 | 10.4 | 0.00 | 0.00 | 0.00 | 56 | 1012.4 |
| 20260505211005 | 55 | 80 | 7.0 | 9.6 | 0.00 | 0.00 | 0.00 | 57 | 1012.5 |
| 20260505210006 | 55 | 77 | 5.2 | 9.6 | 0.00 | 0.00 | 0.00 | 60 | 1012.4 |
| 20260505205005 | 56 | 79 | 4.3 | 6.1 | 0.00 | 0.00 | 0.00 | 62 | 1012.3 |
| 20260505204005 | 56 | 74 | 5.2 | 9.6 | 0.00 | 0.00 | 0.00 | 61 | 1012.2 |
| 20260505202006 | 56 | 56 | 5.2 | 9.6 | 0.00 | 0.00 | 0.00 | 60 | 1012.0 |
| 20260505201005 | 57 | 42 | 4.3 | 7.0 | 0.00 | 0.00 | 0.00 | 59 | 1012.0 |
| 20260505200005 | 57 | 50 | 2.6 | 4.3 | 0.00 | 0.00 | 0.00 | 59 | 1011.9 |
| 20260505195005 | 57 | 47 | 1.7 | 3.5 | 0.00 | 0.00 | 0.00 | 58 | 1011.8 |
| 20260505194005 | 58 | 49 | 2.6 | 5.2 | 0.00 | 0.00 | 0.00 | 57 | 1011.4 |
| 20260505193005 | 58 | 48 | 3.5 | 6.1 | 0.00 | 0.00 | 0.00 | 56 | 1011.6 |
| 20260505192006 | 58 | 38 | 3.5 | 5.2 | 0.00 | 0.00 | 0.00 | 56 | 1011.3 |
| 20260505191006 | 58 | 39 | 2.6 | 4.3 | 0.00 | 0.00 | 0.00 | 56 | 1011.4 |
| 20260505190006 | 58 | 48 | 1.7 | 3.5 | 0.00 | 0.00 | 0.00 | 55 | 1011.4 |
| 20260505185006 | 59 | 46 | 3.5 | 4.3 | 0.00 | 0.00 | 0.00 | 55 | 1011.4 |
| 20260505184005 | 59 | 49 | 4.3 | 6.1 | 0.00 | 0.00 | 0.00 | 54 | 1011.4 |
| 20260505183006 | 59 | 51 | 4.3 | 7.0 | 0.00 | 0.00 | 0.00 | 53 | 1011.3 |
| 20260505182006 | 60 | 42 | 4.3 | 7.0 | 0.00 | 0.00 | 0.00 | 53 | 1011.3 |
| 20260505180007 | 60 | 40 | 4.3 | 5.2 | 0.00 | 0.00 | 0.00 | 51 | 1011.2 |
| 20260505175006 | 60 | 33 | 3.5 | 5.2 | 0.00 | 0.00 | 0.00 | 50 | 1011.3 |
| 20260505174006 | 60 | 44 | 3.5 | 5.2 | 0.00 | 0.00 | 0.00 | 49 | 1011.4 |
| 20260505173006 | 60 | 58 | 4.3 | 7.8 | 0.00 | 0.00 | 0.00 | 48 | 1011.4 |
| 20260505172006 | 60 | 58 | 4.3 | 6.1 | 0.00 | 0.00 | 0.00 | 47 | 1011.4 |
| 20260505171006 | 60 | 58 | 6.1 | 9.6 | 0.00 | 0.00 | 0.00 | 47 | 1011.5 |
| 20260505170006 | 60 | 51 | 7.0 | 9.6 | 0.00 | 0.00 | 0.00 | 46 | 1011.5 |
| 20260505165006 | 60 | 46 | 6.1 | 9.6 | 0.00 | 0.00 | 0.00 | 46 | 1011.7 |
| 20260505164006 | 60 | 46 | 6.1 | 8.7 | 0.00 | 0.00 | 0.00 | 46 | 1011.5 |
| 20260505163008 | 61 | 50 | 6.1 | 8.7 | 0.00 | 0.00 | 0.00 | 45 | 1011.6 |
| 20260505162006 | 61 | 50 | 7.0 | 10.4 | 0.00 | 0.00 | 0.00 | 45 | 1011.7 |
| 20260505161007 | 62 | 49 | 6.1 | 9.6 | 0.00 | 0.00 | 0.00 | 45 | 1011.6 |
| 20260505153006 | 62 | 55 | 7.8 | 12.2 | 0.00 | 0.00 | 0.00 | 45 | 1011.6 |
| 20260505152007 | 62 | 47 | 8.7 | 13.9 | 0.00 | 0.00 | 0.00 | 45 | 1011.4 |
| 20260505151007 | 62 | 51 | 8.7 | 13.9 | 0.00 | 0.00 | 0.00 | 44 | 1011.5 |
| 20260505125006 | 63 | 58 | 9.6 | 14.8 | 0.00 | 0.00 | 0.00 | 46 | 1012.0 |
| 20260505124006 | 63 | 48 | 7.8 | 12.2 | 0.00 | 0.00 | 0.00 | 48 | 1011.9 |
| 20260505123006 | 63 | 44 | 7.8 | 13.0 | 0.00 | 0.00 | 0.00 | 48 | 1011.9 |
| 20260505122006 | 63 | 38 | 9.6 | 13.0 | 0.00 | 0.00 | 0.00 | 46 | 1012.0 |
| 20260505121007 | 64 | 33 | 6.1 | 9.6 | 0.00 | 0.00 | 0.00 | 48 | 1012.1 |
| 20260505120006 | 64 | 38 | 7.0 | 9.6 | 0.00 | 0.00 | 0.00 | 49 | 1012.0 |
| 20260505115006 | 64 | 34 | 6.1 | 10.4 | 0.00 | 0.00 | 0.00 | 53 | 1011.8 |
| 20260505114006 | 63 | 25 | 5.2 | 9.6 | 0.00 | 0.00 | 0.00 | 53 | 1011.9 |
| 20260505113006 | 63 | 22 | 7.0 | 10.4 | 0.00 | 0.00 | 0.00 | 54 | 1012.0 |
| 20260505112006 | 62 | 13 | 7.0 | 10.4 | 0.00 | 0.00 | 0.00 | 58 | 1012.1 |
| 20260505111006 | 62 | 12 | 7.8 | 10.4 | 0.00 | 0.00 | 0.00 | 58 | 1012.3 |
| 20260505102007 | 64 | 8 | 8.7 | 11.3 | 0.00 | 0.00 | 0.00 | 54 | 1012.3 |
| 20260505101006 | 64 | 6 | 7.0 | 11.3 | 0.00 | 0.00 | 0.00 | 55 | 1012.2 |
| 20260505100006 | 61 | 12 | 8.7 | 13.9 | 0.00 | 0.00 | 0.00 | 63 | 1012.4 |
| 20260505095007 | 60 | 15 | 8.7 | 12.2 | 0.00 | 0.00 | 0.00 | 63 | 1012.3 |